DateTimeUTC,F1_A11,F1_S11,BsB_S11,BsG_S11,BsR_S11,BbsB_S11,BbsG_S11,BbsR_S11,BaB_A11,BaG_A11,BaR_A11,Tu_S11,T_S11,Uu_S11,U_S11,P_S11,T1_A11
2021-02-06T13:00:00Z,00000200,21000000,,,,,,,-000.16,0000.18,0000.18,15.4,22.8,,00.0,0652.8,30.8
2021-02-06T13:01:00Z,00000200,21000000,,,,,,,0000.10,0000.49,0000.10,15.3,22.8,,00.0,0652.8,30.8
2021-02-06T13:02:00Z,00000200,21000000,,,,,,,0000.12,-000.45,0000.09,15.3,22.8,,00.0,0652.8,30.8
2021-02-06T13:03:00Z,00000200,61000000,,,,,,,0000.09,0000.50,0000.19,15.3,22.8,,00.0,0652.8,30.8
2021-02-06T13:04:00Z,00000200,41000000,-000.18,-000.07,0000.17,0000.59,0000.26,-000.07,0000.46,0000.19,-000.01,15.8,22.7,,00.0,0653.7,30.9
2021-02-06T13:05:00Z,00000200,01000000,-000.13,0000.16,-000.03,-000.01,0000.01,-000.03,-000.29,0000.17,0000.19,15.9,22.7,,00.0,0653.8,30.9
2021-02-06T13:06:00Z,00000200,01000000,0000.27,0000.20,0000.16,-000.34,0000.12,0000.01,0000.61,0000.70,0000.12,15.9,22.7,,00.0,0653.8,30.9
2021-02-06T13:07:00Z,00000200,01000000,0000.65,0000.55,0000.10,-000.39,0000.18,-000.12,0000.17,-000.02,0000.12,15.9,22.7,,00.0,0653.8,30.8
2021-02-06T13:08:00Z,00000200,01000000,0000.15,0000.27,0000.16,0000.12,-000.12,0000.20,0000.91,0000.83,0000.29,15.9,22.7,,00.0,0653.7,30.8
2021-02-06T13:09:00Z,00000200,01000000,-000.03,0000.23,0000.09,-000.36,0000.08,-000.14,-000.25,-000.19,0000.41,15.9,22.6,,00.0,0653.7,30.8
2021-02-06T13:10:00Z,00000200,01000000,0000.36,0000.21,0000.07,0000.10,0000.14,0000.03,0000.61,0000.34,-000.00,15.8,22.6,,00.0,0653.7,30.8
2021-02-06T13:11:00Z,00000200,01000000,0000.28,-000.07,-000.11,-000.01,0000.11,0000.18,0000.62,0000.64,0000.23,15.8,22.6,,00.0,0653.7,30.8
2021-02-06T13:12:00Z,00000200,01000000,0000.19,0000.01,-000.21,-000.07,0000.02,0000.08,-000.19,0000.01,0000.23,15.7,22.6,,00.0,0653.7,30.8
2021-02-06T13:13:00Z,00000200,01000000,0000.15,0000.37,0000.63,-000.08,0000.26,0000.07,0000.27,0000.24,0000.17,15.6,22.5,,00.0,0653.7,30.8
2021-02-06T13:14:00Z,00000200,01000000,0000.52,0000.14,0000.12,0000.52,0000.24,0000.17,-000.21,-000.72,-000.03,15.6,22.5,,00.0,0653.7,30.8
2021-02-06T13:15:00Z,00000200,01000000,-000.16,0000.32,0000.13,0000.52,0000.16,0000.05,-000.03,0000.30,-000.23,15.5,22.5,,00.0,0653.7,30.8
2021-02-06T13:16:00Z,00000200,01000000,0000.16,0000.08,-000.05,-000.18,-000.03,0000.04,0000.14,-000.09,0000.05,15.6,22.5,,00.0,0653.7,30.8
2021-02-06T13:17:00Z,00000200,01000000,0000.04,0000.14,0000.14,0000.05,0000.28,-000.16,0000.10,0000.02,-000.02,15.6,22.5,,00.0,0653.7,30.8
2021-02-06T13:18:00Z,00000200,01000000,-000.31,0000.30,0000.02,-000.32,0000.04,0000.02,0000.30,0000.53,0000.55,15.7,22.5,,00.0,0653.7,30.8
2021-02-06T13:19:00Z,00000200,01000000,-000.58,0000.06,0000.22,0000.01,0000.21,-000.15,-000.01,0000.10,-000.21,15.8,22.5,,00.0,0653.7,30.8
2021-02-06T13:20:00Z,00000200,01000000,-000.16,0000.21,0000.25,0000.37,0000.11,0000.37,0000.53,0000.54,0000.32,15.8,22.6,,00.0,0653.7,30.8
2021-02-06T13:21:00Z,00000200,01000000,0000.24,-000.04,0000.17,0000.43,0000.00,-000.11,0000.18,0000.14,0000.16,15.9,22.6,,00.0,0653.7,30.8
2021-02-06T13:22:00Z,00000200,01000000,0000.15,0000.47,0000.10,0000.64,-000.11,-000.18,-000.19,0000.12,-000.01,15.9,22.6,,00.0,0653.7,30.9
2021-02-06T13:23:00Z,00000200,01000000,-000.55,0000.30,0000.22,-000.05,-000.21,-000.03,0000.11,0000.01,0000.18,16.0,22.7,,00.0,0653.7,30.9
2021-02-06T13:24:00Z,00000200,01000000,-000.10,0000.20,0000.05,0000.11,0000.28,-000.09,-000.28,-000.06,-000.28,16.0,22.7,,00.0,0653.7,30.9
2021-02-06T13:25:00Z,00000200,01000000,0000.39,0000.14,-000.04,-000.01,0000.44,-000.09,-000.03,-000.40,0000.26,16.1,22.7,,00.0,0653.8,30.9
2021-02-06T13:26:00Z,00000200,01000000,-000.16,0000.29,-000.05,-000.53,0000.11,-000.02,-000.13,-000.14,-000.34,16.1,22.8,,00.0,0653.8,30.9
2021-02-06T13:27:00Z,00000200,01000000,0000.17,0000.29,0000.22,0000.22,-000.09,0000.05,-000.07,0000.04,0000.00,16.2,22.8,,00.0,0653.8,30.9
2021-02-06T13:28:00Z,00000200,01000000,0000.00,0000.29,0000.22,-000.38,0000.46,0000.11,0000.28,0000.04,0000.17,16.2,22.8,,00.0,0653.8,30.9
2021-02-06T13:29:00Z,00000200,01000000,0000.08,0000.40,0000.07,-000.04,0000.21,-000.13,0000.26,0000.25,0000.11,16.1,22.8,,00.0,0653.7,30.9
2021-02-06T13:30:00Z,00000200,01000000,-000.17,0000.20,0000.05,-000.21,0000.17,-000.05,0000.63,0000.43,0000.26,16.1,22.7,,00.0,0653.7,30.9
2021-02-06T13:31:00Z,00000200,01000000,-000.20,0000.11,-000.07,-000.02,0000.04,-000.06,0000.35,0000.50,0000.36,16.1,22.8,,00.0,0653.6,30.9
2021-02-06T13:32:00Z,00000200,01000000,0000.29,0000.15,0000.28,-000.23,0000.10,0000.13,-000.05,0000.13,0000.04,16.1,22.8,,00.0,0653.7,30.9
2021-02-06T13:33:00Z,00000200,01000000,0000.04,0000.20,0000.22,0000.10,0000.31,0000.30,-000.06,-000.33,-000.04,16.2,22.8,,00.0,0653.7,30.9
2021-02-06T13:34:00Z,00000200,01000000,-000.37,-000.10,0000.15,-000.33,0000.08,-000.21,-000.04,-000.10,-000.09,16.2,22.8,,00.0,0653.7,30.9
2021-02-06T13:35:00Z,00000200,01000000,0000.69,0000.17,-000.04,0000.33,0000.14,-000.07,-000.13,0000.34,-000.14,16.2,22.8,,00.0,0653.8,30.9
2021-02-06T13:36:00Z,00000200,01000000,0001.40,0000.17,-000.25,0000.52,0000.03,-000.04,-000.03,-000.18,-000.07,16.2,22.8,,00.0,0653.8,30.9
2021-02-06T13:37:00Z,00000200,01000000,0001.36,0002.29,0002.25,0000.22,0000.61,0000.56,0006.04,0005.65,0005.99,16.1,22.8,,00.0,0653.6,30.9
2021-02-06T13:38:00Z,00000200,01000000,0000.96,0000.75,0000.58,0000.43,0000.14,0000.09,0001.73,0001.85,0001.63,16.1,22.8,,00.0,0653.4,30.9
2021-02-06T13:39:00Z,00000200,01000000,0000.10,0000.37,-000.03,-000.12,0000.29,0000.20,-000.57,-000.46,-000.21,16.0,22.8,,00.0,0653.4,30.9
2021-02-06T13:40:00Z,00000200,01000000,0000.27,0000.03,0000.24,0000.40,0000.19,-000.07,0000.20,-000.09,0000.19,16.0,22.8,,00.0,0653.4,30.8
2021-02-06T13:41:00Z,00000200,01000000,-000.36,0000.12,0000.16,0000.04,0000.18,-000.09,0000.05,0000.34,0000.26,15.9,22.7,,00.0,0653.4,30.8
2021-02-06T13:42:00Z,00000200,01000000,0000.31,0000.22,0000.11,0000.57,0000.03,-000.19,0000.09,-000.07,-000.27,15.9,22.7,,00.0,0653.5,30.8
2021-02-06T13:43:00Z,00000200,01000000,0000.50,0000.19,0000.24,-000.15,0000.27,0000.18,-000.22,-000.15,-000.02,15.8,22.7,,00.0,0653.5,30.8
2021-02-06T13:44:00Z,00000200,01000000,0000.59,0000.21,-000.01,0000.02,0000.39,-000.12,0000.02,0000.48,0000.24,15.8,22.7,,00.0,0653.4,30.8
2021-02-06T13:45:00Z,00000200,01000000,-000.92,-000.04,-000.12,-000.47,0000.14,-000.10,0000.11,-000.22,-000.32,15.8,22.6,,00.0,0653.4,30.8
2021-02-06T13:46:00Z,00000200,01000000,-000.12,0000.30,0000.31,0000.32,0000.08,-000.05,0000.63,0000.32,0000.62,15.8,22.6,,00.0,0653.4,30.8
2021-02-06T13:47:00Z,00000200,01000000,-000.04,0000.36,-000.02,0000.25,0000.17,-000.07,-000.48,0000.02,-000.14,15.8,22.7,,00.0,0653.4,30.8
2021-02-06T13:48:00Z,00000200,01000000,0000.14,0000.17,0000.05,0000.32,0000.03,0000.05,0000.51,-000.10,0000.53,15.9,22.7,,00.0,0653.4,30.8
2021-02-06T13:49:00Z,00000200,01000000,0000.42,0000.19,-000.24,0000.15,0000.05,-000.24,0000.25,0000.38,-000.03,16.0,22.7,,00.0,0653.4,30.8
2021-02-06T13:50:00Z,00000200,01000000,-000.58,0000.21,-000.11,-000.07,0000.06,-000.05,0000.26,0000.58,0000.39,16.0,22.7,,00.0,0653.4,30.8
2021-02-06T13:51:00Z,00000200,01000000,0000.31,0000.17,0000.19,0000.35,0000.12,-000.19,0000.50,0000.24,-000.18,15.9,22.7,,00.0,0653.5,30.8
2021-02-06T13:52:00Z,00000200,01000000,0000.54,0000.19,0000.22,-000.20,0000.50,-000.19,0000.28,0000.22,0000.30,15.9,22.7,,00.0,0653.5,30.8
2021-02-06T13:53:00Z,00000200,01000000,-000.46,0000.60,-000.05,0000.02,-000.17,0000.03,-000.06,0000.43,0000.03,15.9,22.7,,00.0,0653.5,30.8
2021-02-06T13:54:00Z,00000200,01000000,-000.06,0000.04,0000.07,0000.68,-000.03,-000.08,0000.65,0000.11,0000.35,15.8,22.7,,00.0,0653.5,30.8
2021-02-06T13:55:00Z,00000200,01000000,-000.59,-000.05,0000.11,-000.20,0000.39,0000.20,0000.23,0000.03,0000.42,15.8,22.7,,00.0,0653.5,30.8
2021-02-06T13:56:00Z,00000200,01000000,0000.11,-000.18,-000.31,-000.29,0000.26,-000.10,0000.24,0000.94,0000.25,15.7,22.6,,00.0,0653.5,30.8
2021-02-06T13:57:00Z,00000200,41000000,,,,,,,-000.77,-001.50,-000.99,15.7,22.6,,00.0,0653.5,30.8
2021-02-06T13:58:00Z,00000200,61000000,,,,,,,0000.06,0000.84,-000.16,15.3,22.7,,00.0,0652.5,30.8
2021-02-06T13:59:00Z,00000200,21000000,,,,,,,0000.49,-000.22,0000.19,15.2,22.8,,00.0,0652.5,30.8
